Location: Unspecified
(0.0000°N, 0.0000°E)
Time: 22:15:29
(UTC+01:00)

JASON 3 - Pass Details

Date: 06 October 2020
Orbit: 1332 x 1343 km, 66.0° (Epoch: 27 October)

Event Time Altitude Azimuth Distance (km) Brightness Sun altitude
Rises 23:06:04 0° 308° (NW) 4,345 ? -49.2°
Reaches altitude 10° 23:09:53 10° 292° (WNW) 3,373 ? -50.2°
Maximum altitude 23:15:21 20° 249° (WSW) 2,708 ? -51.5°
Enters shadow 23:18:34 16° 221° (SW) 2,953 ? -52.3°
Exits shadow 23:24:21 - 190° (S) 4,245 ? -53.7°
Sets 23:24:44 0° 189° (S) 4,346 ? -53.8°
